GEFSSE_500_meanwind_000.txt.gz
Wind_Speed
4 6 9 10 11 12 14 16 17 18 17 17 18 18 18 17 15 17 19 19 19 17 15 14 14 13 13 13 12 12 11 11 11 10 10 10 9 7 7 8 7 6 8
1 3 6 8 9 11 13 13 13 14 15 16 18 19 19 18 16 17 19 21 19 17 15 14 13 13 13 13 13 10 9 10 10 10 10 10 10 9 8 6 5 4 4
3 4 5 7 8 9 11 11 9 10 12 14 16 18 18 17 16 16 18 21 20 18 17 14 13 14 14 13 13 12 9 8 8 9 9 10 10 9 8 8 6 2 1
7 7 7 7 7 7 8 9 7 7 9 12 14 16 16 16 14 15 18 19 19 18 19 18 16 15 15 15 14 14 13 10 8 7 8 9 8 7 7 7 7 6 3
8 9 9 9 8 7 7 8 7 7 8 10 12 12 14 14 14 14 16 18 18 17 19 20 19 17 16 15 15 14 14 13 11 9 7 7 6 5 6 5 5 5 5
8 8 9 10 9 9 8 9 10 11 12 12 11 11 12 13 14 14 15 17 16 16 17 18 18 19 18 16 15 15 14 14 12 11 10 8 7 4 6 6 5 3 3
7 8 8 9 10 11 11 12 13 14 14 13 12 12 13 13 14 15 16 17 16 16 17 18 18 18 17 16 16 16 16 15 14 13 12 10 9 7 6 7 6 4 2
8 8 8 9 10 11 11 11 12 13 14 14 14 14 13 13 12 13 14 15 16 15 16 17 18 17 15 14 14 14 14 15 15 14 13 12 11 8 8 8 8 7 6
8 9 9 10 10 9 8 8 8 9 9 10 11 10 10 11 12 12 13 14 16 15 15 16 17 17 17 15 13 12 12 13 14 15 16 15 14 10 10 10 9 9 9
9 10 10 10 10 8 7 7 6 6 7 8 9 10 11 11 11 12 12 13 15 15 15 15 14 15 16 17 16 15 14 14 13 13 16 17 15 12 10 12 12 11 10
9 11 10 11 11 12 11 11 12 12 13 13 13 15 14 13 14 14 13 14 14 14 14 15 14 14 15 16 17 18 18 18 17 15 16 17 17 14 10 12 14 14 14
12 13 15 15 15 16 17 19 19 20 20 20 20 20 20 18 18 20 19 19 19 18 18 18 17 16 17 18 19 19 19 19 20 20 18 16 17 15 13 13 15 15 16
19 20 21 22 22 22 22 23 24 24 23 23 25 25 26 25 24 25 25 25 25 24 23 20 19 18 19 21 21 22 22 22 21 22 23 22 20 20 19 17 17 16 15
22 24 25 25 26 27 26 27 28 29 28 29 29 29 29 28 27 27 28 29 30 31 30 28 24 21 22 23 22 22 22 22 23 24 24 24 22 23 23 23 20 20 18
26 26 27 30 32 33 32 32 32 33 35 37 36 35 35 35 33 31 31 32 33 34 33 33 31 27 27 27 28 28 26 23 22 24 25 24 25 26 26 26 26 23 22
29 30 30 33 35 37 37 37 37 38 39 39 39 39 39 39 37 36 35 34 34 34 34 33 34 34 34 32 32 34 33 30 27 27 27 27 27 29 30 29 30 28 25
32 33 36 38 38 39 41 42 42 42 41 41 41 41 40 38 37 37 37 38 37 36 36 35 36 36 37 37 36 36 38 37 40 38 33 32 31 32 33 33 32 31 28
32 34 36 38 41 42 43 43 44 43 42 44 43 40 38 37 36 35 37 38 37 38 37 38 39 38 40 41 41 42 42 42 43 44 38 33 32 34 35 35 36 35 32
31 33 36 37 38 37 38 39 40 41 41 41 40 39 40 38 37 37 38 38 39 40 42 43 42 41 40 43 45 44 43 44 45 44 40 38 37 34 36 38 39 39 36
35 34 35 35 36 37 37 39 40 41 41 39 39 40 41 42 41 40 41 43 43 42 43 44 43 42 43 45 47 47 46 44 43 40 36 34 33 33 36 39 41 40 39
38 38 37 35 34 36 37 39 40 41 42 42 41 41 42 43 42 41 40 40 41 41 41 42 43 43 44 45 46 48 46 42 38 37 37 32 33 35 37 38 40 40 41
36 36 36 36 34 35 36 37 37 37 38 39 39 40 39 39 40 40 41 41 42 41 40 41 42 42 42 42 43 44 43 40 37 39 41 37 35 36 37 36 38 38 39
32 33 33 33 33 35 37 37 36 35 34 34 35 35 35 35 35 36 38 40 41 41 41 42 42 43 43 42 43 45 43 39 39 39 40 37 37 37 35 33 38 39 35
35 38 38 38 36 35 36 37 37 37 37 37 36 36 37 37 37 36 37 39 40 42 44 44 44 45 45 44 45 45 45 42 40 37 35 38 38 30 28 28 34 36 33
36 38 40 44 44 42 40 39 39 40 40 40 40 39 38 38 39 39 40 41 43 45 45 45 46 47 47 46 46 44 42 41 37 34 35 37 33 28 25 27 33 34 33
31 31 32 36 39 41 43 43 42 42 42 42 41 40 40 40 40 40 40 41 43 44 44 45 47 48 47 46 47 47 44 38 34 33 32 32 25 26 27 33 32 34 34

GEFSSE_500_meanwind_006.txt.gz
Wind_Speed
7 9 9 9 9 10 12 13 15 16 17 17 18 18 17 16 17 19 20 20 19 18 16 15 15 15 13 12 10 7 8 8 9 10 10 9 7 5 4 4 5 6 7
6 7 7 7 8 8 9 10 12 13 14 14 15 15 14 14 15 17 18 18 18 18 16 15 15 15 14 13 12 10 7 7 7 8 8 7 6 6 4 3 3 2 3
7 7 6 6 7 7 8 8 9 11 12 12 12 12 12 11 12 14 15 15 15 16 16 15 14 14 14 13 13 12 10 7 5 5 6 6 5 5 5 4 2 2 2
6 6 6 6 7 6 6 7 8 9 10 10 9 9 9 9 9 10 11 12 12 13 13 14 14 13 11 11 12 11 11 10 9 7 5 4 4 3 5 4 4 3 1
5 4 4 4 5 5 5 5 6 7 7 7 6 6 6 6 6 7 9 10 10 11 12 12 12 11 10 9 9 9 8 9 10 10 8 5 2 1 2 2 2 3 3
7 6 5 4 4 4 5 5 6 5 4 4 3 3 3 3 4 5 6 7 8 9 11 12 12 11 9 7 6 6 6 6 7 10 12 9 4 2 3 2 2 2 2
9 8 7 6 6 5 5 5 5 4 4 4 4 4 4 4 4 5 6 7 9 10 11 11 11 11 10 8 5 4 3 4 5 7 10 12 9 3 3 3 3 3 3
11 11 10 8 8 7 5 4 4 4 3 4 4 4 4 5 6 7 9 10 12 14 15 14 12 11 11 10 8 5 4 4 5 5 6 8 9 7 4 4 4 4 4
10 10 10 9 8 7 6 5 5 5 5 5 6 7 9 11 12 12 13 14 15 16 16 15 13 11 10 10 9 7 6 7 8 7 7 6 7 7 6 3 4 5 6
8 8 8 9 9 9 8 7 7 9 10 11 11 12 13 15 16 18 19 19 18 18 18 19 17 15 13 11 11 11 10 9 9 10 9 8 8 7 6 5 4 5 6
11 11 10 11 11 12 13 13 14 15 16 17 17 16 17 18 19 21 22 22 22 21 22 23 23 20 17 16 15 15 15 14 13 12 12 11 10 10 9 7 7 7 7
18 17 16 16 16 17 18 19 20 21 22 22 22 23 22 22 23 24 26 26 26 25 25 25 25 23 22 21 19 18 18 18 17 16 16 15 14 14 14 13 12 12 11
24 23 23 22 22 23 23 25 26 27 27 28 28 28 28 29 29 29 30 30 30 30 29 28 27 27 27 27 25 23 23 22 21 20 19 17 16 17 18 18 18 17 15
29 29 28 28 28 28 29 29 30 31 32 33 32 32 33 34 34 34 33 33 33 33 33 32 32 32 31 31 29 28 27 27 26 25 23 21 19 19 20 21 22 22 21
31 31 32 33 34 35 35 35 35 35 35 36 36 36 37 38 38 38 36 35 35 36 37 37 36 36 35 34 33 32 31 30 30 30 29 26 24 22 22 23 25 25 25
30 31 32 33 35 37 38 39 40 41 40 39 39 40 41 42 42 42 40 38 37 38 40 40 39 39 39 37 36 35 34 32 31 31 32 29 28 28 29 27 28 29 29
28 28 28 29 30 33 35 36 38 39 40 40 41 42 43 42 43 44 42 39 38 39 40 40 40 40 41 40 40 38 35 33 32 32 34 34 32 32 31 31 30 31 33
28 28 27 28 28 30 32 34 35 35 36 37 38 39 39 40 40 39 39 38 39 40 40 41 40 39 39 39 38 36 34 34 35 35 35 34 34 34 33 33 33 32 33
28 27 25 25 27 28 29 31 33 34 35 37 39 38 38 39 40 40 39 38 38 39 40 42 42 42 43 43 41 38 37 38 38 36 34 34 35 35 35 34 34 34 33
26 25 24 26 28 28 26 26 27 29 32 34 37 38 39 40 40 40 39 39 39 40 41 42 43 44 45 44 43 40 38 37 37 36 33 33 34 35 34 33 34 33 33
26 27 28 29 29 26 26 26 27 28 29 30 32 34 35 37 37 37 36 35 36 37 38 40 42 43 44 44 43 40 38 37 35 34 33 33 33 33 33 32 32 32 32
28 30 31 31 29 28 28 29 29 30 31 33 34 35 35 35 35 36 35 34 34 35 35 36 38 39 41 41 41 39 36 35 35 35 35 35 34 34 33 32 33 34 33
32 34 32 30 29 29 28 28 29 30 31 32 33 34 36 37 37 38 38 37 37 37 35 34 34 35 37 38 38 37 36 35 37 36 36 37 37 36 35 34 34 34 33
32 31 29 29 30 31 30 29 28 28 29 30 31 32 34 37 39 40 40 40 39 39 37 36 35 35 35 36 36 37 38 37 36 35 36 36 36 35 34 34 34 33 32
29 28 28 28 29 27 24 22 22 24 26 29 31 33 34 36 37 39 41 42 42 41 39 38 37 36 35 35 36 37 39 39 38 37 34 33 34 34 33 33 32 32 30
27 27 27 26 23 20 18 18 21 23 25 28 30 32 35 36 37 37 39 41 42 42 42 40 39 38 36 36 36 37 38 39 38 38 35 32 32 32 31 29 29 28 26

GEFSSE_500_meanwind_012.txt.gz
Wind_Speed
5 7 8 7 7 6 6 7 7 8 8 8 7 7 8 9 10 11 12 12 11 11 11 11 10 10 9 7 5 4 4 5 6 6 6 6 5 5 5 5 6 7 8
3 4 5 5 4 2 1 2 4 5 5 5 4 3 4 6 7 8 8 9 9 9 9 10 9 9 9 8 7 5 3 3 3 4 4 4 4 4 3 3 3 4 6
1 2 3 3 2 1 1 2 2 3 4 5 4 3 3 3 5 5 5 6 7 7 8 8 7 7 7 7 7 6 5 3 2 1 1 2 2 3 3 2 3 3 4
1 1 1 1 1 2 3 4 5 6 6 6 6 5 5 4 4 5 5 5 5 6 8 9 8 6 5 4 4 4 4 5 4 2 1 1 1 1 2 2 2 3 5
3 3 2 1 3 4 5 6 7 7 7 6 6 6 6 6 6 6 7 6 6 6 9 12 12 9 6 4 3 2 2 2 3 3 1 2 3 3 3 2 2 3 3
3 3 3 3 5 6 6 7 7 7 7 6 6 7 7 7 7 8 8 8 8 8 11 13 13 11 8 6 5 4 3 1 1 2 2 1 3 5 6 5 4 3 3
3 3 3 3 4 4 5 6 7 7 7 7 7 7 8 9 9 10 10 11 12 12 13 13 12 10 8 7 6 7 6 5 3 1 0 1 2 4 6 7 8 7 6
3 3 3 3 3 5 6 6 7 8 8 8 8 8 9 11 12 13 13 14 15 15 15 13 12 11 9 8 7 8 9 9 7 6 5 4 3 3 4 6 9 8 8
6 6 7 7 8 8 9 9 9 9 10 10 10 11 12 13 15 15 16 16 17 17 16 15 14 13 12 11 10 10 10 11 11 11 10 9 8 6 4 5 8 9 9
11 12 13 14 15 16 16 16 15 14 14 15 15 15 16 18 18 19 19 19 19 19 19 18 18 17 16 15 14 13 13 13 14 14 14 14 13 11 9 7 7 9 9
16 18 20 20 21 22 23 23 22 21 21 22 22 22 22 23 23 23 23 23 23 23 23 23 22 21 20 20 19 18 17 17 18 17 17 17 16 15 14 12 11 10 10
22 23 25 26 27 27 27 28 29 29 28 28 28 28 28 28 27 27 27 27 27 28 28 28 28 26 26 25 24 23 23 23 23 22 21 19 19 18 17 16 16 15 14
27 28 29 30 31 32 32 32 32 33 33 33 33 33 33 32 32 31 31 31 32 33 33 33 33 32 31 31 30 29 29 28 28 27 26 24 22 20 19 19 19 18 18
32 33 33 33 33 34 35 36 37 37 38 38 38 38 38 37 37 36 36 36 36 37 37 38 38 38 37 36 35 34 34 35 34 33 30 28 26 24 23 22 22 22 21
35 36 36 35 34 35 36 37 37 37 37 38 38 39 39 40 40 40 40 39 39 40 41 42 42 42 41 40 38 38 38 39 39 38 35 32 30 28 26 26 26 26 25
37 36 35 34 34 34 34 34 34 34 34 34 35 36 37 37 37 37 38 38 39 39 40 40 40 41 41 41 39 39 39 40 41 42 40 38 34 30 28 27 26 27 27
37 35 33 32 32 32 32 32 33 33 34 34 35 35 34 34 34 34 34 34 34 35 35 34 34 35 35 37 37 37 37 37 39 41 41 39 37 33 30 28 27 28 28
34 32 32 32 33 32 31 31 31 31 31 32 32 32 31 31 31 31 32 32 33 35 35 36 36 36 35 36 37 37 38 37 37 37 36 36 35 33 32 31 30 30 30
30 31 32 33 33 32 31 30 28 28 28 28 28 28 28 29 29 29 30 31 32 33 35 36 37 37 37 38 39 39 39 39 38 36 34 32 32 32 32 33 33 33 32
30 31 33 33 32 31 31 30 29 27 26 25 25 25 25 25 25 26 28 30 32 33 35 36 37 38 38 38 39 39 38 38 38 37 36 35 34 33 33 34 35 35 35
33 34 33 32 31 31 31 29 27 24 22 21 20 19 18 18 19 21 23 26 29 32 35 37 38 38 38 38 38 37 36 36 35 35 34 35 35 34 34 35 36 36 37
36 36 34 33 31 30 29 26 23 19 17 16 15 13 12 13 14 16 18 21 24 28 32 35 38 39 40 40 40 39 37 35 34 33 33 33 33 34 34 35 36 36 37
38 37 35 33 32 30 27 23 19 15 13 12 12 12 13 13 14 16 18 20 22 25 28 32 36 38 40 41 42 41 39 37 35 34 33 32 32 32 33 34 35 36 38
39 36 34 34 33 30 26 23 19 16 15 15 16 17 17 17 17 18 20 21 23 26 29 31 34 37 38 40 42 42 41 39 37 35 33 32 32 33 34 34 35 36 37
37 36 35 35 34 30 27 24 22 20 21 21 22 22 22 21 19 19 21 22 24 26 29 31 33 35 37 38 40 42 42 41 38 36 34 33 33 34 35 35 35 36 36
34 34 35 35 33 30 28 27 26 25 26 27 27 27 26 23 21 21 22 24 25 27 30 32 32 32 34 36 38 40 41 41 40 38 36 35 34 34 35 35 34 35 35

GEFSSE_500_meanwind_018.txt.gz
Wind_Speed
3 2 1 2 3 3 4 6 8 10 12 13 13 12 11 11 11 11 11 11 11 12 12 12 12 11 11 10 9 8 7 7 6 6 6 6 6 5 5 6 7 8 8
1 1 1 1 1 1 3 6 7 9 12 13 13 12 11 10 9 10 10 10 10 11 11 12 13 12 11 9 8 8 7 6 5 5 4 4 4 4 4 3 4 4 4
1 1 1 3 3 3 4 6 8 10 12 12 12 12 11 10 9 9 9 9 9 9 10 11 12 12 11 9 8 7 6 6 6 5 4 3 2 2 3 2 1 1 1
1 1 2 3 4 4 6 8 10 11 12 12 12 11 12 11 11 10 10 9 9 9 10 12 13 12 10 9 8 7 5 5 5 5 4 3 2 1 0 1 1 1 2
2 2 3 4 5 5 6 8 10 11 11 12 12 11 12 12 11 11 10 10 10 10 11 13 14 13 10 9 9 8 7 5 4 4 4 4 4 4 3 2 1 0 2
3 4 5 6 6 7 7 9 10 11 12 12 12 12 12 12 12 12 12 11 12 12 13 13 13 12 11 9 9 9 9 7 6 5 5 5 5 4 5 5 4 3 2
4 4 5 6 6 7 8 9 11 13 14 14 14 14 14 14 14 14 14 14 14 14 14 13 13 12 11 10 10 10 10 10 9 8 7 7 6 6 6 7 7 6 5
3 4 5 7 8 10 11 13 14 15 16 17 17 17 17 17 17 18 18 18 18 17 17 15 14 13 13 12 12 11 11 11 11 11 10 10 9 7 7 7 8 9 9
4 6 7 9 11 12 14 15 17 18 19 19 19 19 19 20 21 21 22 21 21 21 20 19 18 17 16 16 15 15 14 14 13 13 13 13 12 11 10 9 9 10 10
8 10 12 14 15 17 18 19 20 21 22 22 23 23 23 24 24 25 26 26 25 25 24 23 22 21 21 21 20 19 19 18 17 16 16 16 15 14 13 12 11 11 11
14 15 17 18 20 21 23 23 23 24 24 26 27 28 28 28 29 30 30 30 30 30 30 29 28 27 26 26 26 25 23 23 22 21 20 19 19 18 16 16 15 13 13
19 20 21 21 24 25 25 26 27 27 27 27 28 29 31 32 32 33 33 34 34 34 34 34 33 32 31 31 31 30 28 28 27 26 24 23 24 22 20 19 18 17 16
23 25 26 27 28 29 29 28 29 30 29 29 30 30 31 32 33 34 34 35 36 36 36 36 37 36 36 35 35 34 33 32 32 31 29 28 28 27 24 22 21 20 19
25 27 29 31 32 32 32 32 32 31 31 30 30 30 30 30 31 32 33 34 35 36 36 37 37 38 38 38 38 37 36 36 35 34 32 31 31 31 30 27 25 24 23
28 31 32 34 34 35 34 33 33 32 31 31 30 30 30 30 30 30 30 31 32 33 35 35 36 37 37 37 37 35 34 31 32 34 34 33 33 33 32 31 30 29 27
33 34 36 36 36 36 35 33 32 31 31 32 32 31 31 30 30 29 29 29 29 29 29 29 29 29 30 30 28 28 29 30 28 30 33 33 33 33 33 34 34 33 32
38 38 39 39 37 36 34 32 32 32 33 32 32 31 31 30 30 29 28 27 27 27 26 26 26 27 28 29 29 30 28 28 28 29 30 30 32 33 32 33 33 34 35
42 42 41 40 36 34 33 33 34 34 33 32 32 32 31 31 30 28 27 26 25 24 25 25 26 27 27 28 28 29 29 29 27 28 28 29 30 30 30 30 30 30 32
46 43 40 39 36 35 34 34 34 34 33 32 32 32 31 30 28 27 26 24 22 22 22 22 23 24 25 26 28 29 30 30 29 29 28 29 29 29 29 29 29 28 28
47 42 38 37 37 36 34 34 34 34 32 31 30 30 29 28 26 24 23 21 20 19 18 18 18 19 21 23 25 27 29 30 31 30 29 28 27 27 26 27 28 27 27
44 40 38 37 37 37 35 35 35 33 31 30 30 29 28 26 24 21 19 17 16 15 15 15 16 17 19 22 24 25 28 29 31 31 31 30 28 26 25 25 26 27 27
42 39 38 37 36 36 36 36 35 33 31 30 29 27 26 23 20 18 17 16 15 15 16 16 16 17 20 22 24 25 26 28 31 32 32 31 29 28 26 25 25 26 28
32 31 34 35 36 36 36 36 34 32 31 29 27 25 23 21 19 18 19 19 19 19 18 18 17 18 19 22 25 27 27 26 29 31 32 32 31 30 28 27 26 25 27
23 22 26 31 34 36 36 35 33 31 29 28 25 23 22 21 21 21 22 22 22 22 21 20 20 20 21 22 26 28 29 29 28 28 30 31 31 30 30 29 28 26 26
33 33 30 32 34 35 35 34 32 30 28 27 25 24 23 23 23 24 25 25 24 24 24 23 23 23 23 24 25 27 28 29 29 28 26 29 30 30 30 30 30 29 26
37 36 37 36 35 34 34 32 31 29 28 27 27 27 27 27 27 27 28 28 28 27 27 26 25 26 26 26 27 27 27 28 29 29 26 26 28 29 30 29 29 30 28

GEFSSE_500_meanwind_024.txt.gz
Wind_Speed
3 2 2 1 1 1 2 3 5 7 8 10 10 10 10 11 11 11 11 12 12 13 14 14 13 11 10 9 8 8 8 7 6 5 4 4 4 4 5 7 9 9 9
4 3 3 3 3 3 3 3 4 6 8 9 9 9 9 9 9 9 9 10 10 12 13 15 15 13 10 8 7 7 7 7 6 5 3 3 4 3 3 3 5 7 8
5 5 5 5 5 5 5 5 5 6 7 8 8 7 7 7 8 8 8 9 10 11 13 14 15 14 11 8 7 6 6 6 6 6 4 3 2 3 3 2 2 3 6
6 6 6 6 6 7 7 7 6 6 6 6 6 6 7 7 7 7 8 9 10 11 13 14 14 14 12 9 7 6 5 5 6 6 5 4 2 1 2 2 1 1 2
7 7 7 7 7 8 8 8 7 7 6 6 7 7 7 7 7 7 8 9 10 12 12 13 13 13 12 10 8 7 6 5 6 6 5 4 3 2 0 0 0 0 1
9 9 9 9 9 9 9 8 8 8 8 9 9 10 10 10 10 10 10 10 11 12 12 12 12 12 11 11 9 8 6 5 5 6 7 5 4 4 2 2 3 2 1
9 9 9 9 9 9 9 9 10 10 11 12 13 13 13 13 13 13 13 13 13 13 13 13 13 12 12 12 11 10 8 7 6 6 7 6 6 5 4 4 4 4 4
9 9 9 9 10 10 11 12 12 13 14 15 16 16 16 16 17 17 17 16 16 16 16 16 15 15 15 14 14 13 12 10 9 7 8 8 7 7 6 5 5 5 6
10 10 11 11 12 13 14 15 16 17 17 18 19 19 19 19 19 20 20 20 20 20 19 19 19 19 19 19 18 17 16 15 13 12 11 11 10 10 9 8 7 7 7
13 14 15 16 17 18 18 18 19 19 20 20 20 21 21 21 22 22 23 23 23 23 23 23 23 23 23 23 23 22 22 21 19 17 16 15 14 13 12 11 10 9 9
16 18 20 22 22 22 21 21 20 20 21 21 21 21 22 22 23 24 25 25 26 26 26 26 27 27 27 27 27 26 26 26 25 23 22 20 19 17 16 15 13 12 11
22 23 24 26 25 24 23 22 21 21 22 21 21 21 21 22 22 23 24 26 27 27 27 28 28 28 29 29 29 28 28 29 29 28 26 25 24 23 21 20 18 16 15
28 28 28 28 27 26 24 23 23 23 23 22 21 21 21 20 21 22 22 24 25 26 27 28 28 29 29 30 30 29 29 30 29 29 29 28 28 28 26 24 23 21 19
32 33 31 30 28 27 25 24 25 25 24 22 21 20 20 20 21 21 22 21 22 24 25 26 27 28 29 30 29 28 27 26 26 25 25 27 27 29 28 27 26 25 23
35 35 35 33 30 29 27 26 25 25 25 23 21 21 22 22 23 22 22 21 22 23 24 25 25 25 25 25 24 24 23 23 22 21 20 21 22 24 26 27 28 27 27
39 39 37 36 33 32 29 28 27 26 24 23 22 23 23 24 24 23 23 22 22 22 23 24 24 25 25 23 21 20 20 20 20 18 18 19 19 20 22 24 27 28 28
44 44 43 39 37 36 34 30 27 25 24 24 23 23 23 24 25 24 23 23 23 23 23 24 24 23 22 21 20 19 17 17 17 17 18 19 19 19 20 21 24 26 27
47 46 44 41 38 35 35 32 27 25 24 24 23 22 23 24 24 24 23 22 23 23 23 23 22 21 20 18 16 15 14 15 15 16 17 18 19 20 20 22 23 23 26
49 49 51 40 31 30 33 30 26 25 25 24 22 23 24 24 24 24 23 22 22 22 21 21 20 19 16 14 12 11 11 11 12 14 15 17 18 20 21 22 23 23 25
51 55 53 41 30 24 27 27 26 25 23 22 22 23 24 24 24 24 23 22 20 19 18 18 17 16 14 12 10 10 9 9 10 12 14 15 17 20 21 23 24 25 26
49 49 46 43 34 21 17 21 24 24 23 22 22 23 24 24 23 23 23 21 19 18 16 16 15 15 14 13 12 11 10 9 10 11 13 15 17 19 21 23 25 26 27
44 42 40 36 28 20 19 18 20 21 21 23 23 24 24 24 24 23 22 20 19 18 17 16 17 17 16 15 14 12 12 11 11 12 13 15 17 19 20 23 26 28 29
41 41 38 33 28 22 21 20 21 21 22 23 23 23 23 23 23 23 22 21 20 20 19 19 19 19 19 17 16 14 13 13 14 14 14 15 17 19 20 23 26 29 31
40 39 37 33 29 26 22 20 21 20 21 22 22 22 23 23 23 23 23 23 23 23 22 22 21 21 21 21 19 17 15 14 14 17 17 16 17 19 20 22 24 28 30
42 40 38 35 31 29 28 26 24 24 23 23 23 24 24 25 25 25 26 26 26 26 26 25 24 23 24 24 22 21 19 17 15 16 19 20 18 19 20 22 23 26 29
45 44 41 39 36 35 34 33 32 31 30 29 29 29 29 28 28 28 29 30 30 30 29 28 27 26 26 27 26 24 23 21 19 18 19 21 21 21 20 21 23 24 26

GEFSSE_500_meanwind_030.txt.gz
Wind_Speed
8 8 8 7 8 8 7 6 5 4 4 5 5 6 6 6 6 7 7 8 9 10 12 13 12 10 7 5 4 5 6 6 6 6 6 7 7 7 7 7 6 7 7
10 10 10 10 11 11 10 9 7 6 4 3 3 3 3 4 4 4 5 6 7 9 11 12 13 12 10 6 4 3 4 4 5 5 5 4 4 4 5 6 6 6 6
10 11 12 12 12 12 11 10 9 8 6 4 2 1 1 2 3 3 4 5 6 8 10 11 12 12 10 8 5 3 2 2 3 4 4 3 2 2 3 4 4 4 5
10 12 13 13 13 12 12 11 10 10 8 6 4 3 3 4 5 5 6 7 7 8 9 10 10 10 10 8 6 4 2 1 1 2 2 2 2 2 2 3 4 4 4
12 13 15 15 14 13 12 12 11 10 9 8 7 6 7 7 7 8 8 8 9 9 9 9 9 9 9 8 7 6 4 3 2 1 0 1 1 2 2 3 4 4 4
13 14 15 15 14 13 12 12 12 12 11 10 10 10 10 10 10 11 11 11 11 12 11 11 10 10 9 8 7 6 6 4 3 2 2 2 2 2 2 3 4 4 4
14 14 14 14 13 12 12 13 13 14 14 14 14 14 14 14 14 14 15 15 15 15 15 14 13 13 11 10 9 8 8 7 6 4 4 4 4 4 3 4 4 5 5
13 14 14 14 14 14 14 14 15 16 16 17 17 18 18 18 18 18 18 18 19 19 19 18 17 17 16 14 13 12 11 11 10 8 7 6 6 6 6 6 6 6 7
14 15 16 16 17 17 18 18 18 19 19 19 20 20 20 21 21 21 21 22 22 22 22 22 21 21 20 19 18 17 16 15 14 13 12 10 9 9 9 9 9 8 8
15 17 18 20 21 22 22 22 22 22 22 22 22 22 22 22 22 23 23 24 24 24 25 25 24 24 24 23 22 20 19 18 17 17 16 15 14 13 13 12 12 11 11
19 21 22 24 25 26 26 27 28 27 27 25 24 23 23 23 23 23 24 24 25 26 26 26 26 26 26 25 24 23 21 20 19 19 19 19 19 18 17 17 16 15 14
22 23 25 27 28 30 31 32 33 33 32 29 28 26 24 23 23 23 24 24 25 25 25 26 27 27 26 26 25 24 23 23 21 21 20 20 21 21 21 20 20 19 18
25 26 28 29 31 32 33 35 35 35 36 34 33 30 28 25 24 23 24 24 24 24 24 25 26 26 26 26 26 25 25 24 23 22 21 20 21 22 22 23 24 23 23
29 29 30 31 32 34 36 36 37 38 38 37 36 34 31 27 25 24 24 24 24 24 24 24 25 24 25 25 25 24 24 23 23 22 22 21 21 21 22 23 24 26 26
30 31 32 34 34 36 36 37 39 39 39 39 39 38 34 30 27 26 25 24 24 24 24 25 24 24 24 24 24 24 23 23 22 22 22 21 19 20 21 21 23 25 27
31 32 34 35 36 38 39 40 39 40 41 42 39 39 36 33 30 28 26 25 25 25 25 26 25 24 24 25 25 25 24 22 21 20 21 20 20 20 20 20 21 23 26
33 34 38 38 39 40 40 41 41 40 39 38 38 40 37 35 32 29 26 25 24 25 25 25 26 26 26 25 25 24 23 22 21 21 20 20 20 20 20 20 21 22 24
37 40 42 41 40 39 40 41 40 39 35 33 37 38 36 35 32 29 26 24 24 25 26 26 26 26 26 26 26 25 23 22 21 20 19 18 18 19 19 20 21 22 23
41 43 43 41 39 39 40 40 38 36 31 29 32 35 35 34 30 27 26 25 25 25 25 26 26 26 26 26 26 25 23 22 21 19 17 16 16 16 17 18 19 20 21
43 43 42 39 37 37 37 37 37 32 26 22 24 28 29 30 28 27 26 25 24 24 25 25 25 25 25 25 24 24 23 21 19 18 16 15 14 14 15 16 17 18 20
43 41 39 38 36 36 36 36 34 29 23 17 18 22 25 27 28 27 27 26 25 25 24 24 24 24 24 24 24 23 22 21 20 18 16 15 14 13 13 14 15 17 18
42 41 39 38 36 36 37 36 34 29 24 21 19 19 21 25 27 27 27 26 26 26 25 24 23 23 23 23 23 23 23 22 21 19 18 17 15 14 13 14 14 15 17
40 40 40 39 39 38 38 36 34 32 29 24 21 21 22 24 27 28 29 29 28 27 27 25 25 24 24 24 24 24 24 24 23 21 19 18 17 16 15 14 14 15 16
39 40 41 41 41 40 39 38 36 34 31 29 27 27 27 27 29 31 32 31 30 29 29 28 27 27 27 26 26 26 26 25 25 23 21 19 18 17 16 15 15 15 16
39 41 42 43 43 43 42 41 40 38 36 34 33 33 32 31 31 33 33 33 32 31 31 31 31 31 31 30 29 28 27 27 27 26 24 22 20 19 18 17 16 16 16
40 41 43 43 44 44 45 44 43 43 42 41 40 38 38 38 37 37 37 36 35 35 34 34 34 34 34 34 33 31 30 29 29 29 28 25 23 21 20 20 19 18 18

GEFSSE_500_meanwind_036.txt.gz
Wind_Speed
4 5 5 6 6 7 8 9 10 10 9 8 8 6 5 4 4 3 4 4 6 7 9 9 9 7 4 2 1 1 2 3 3 3 4 5 6 6 7 7 7 6 6
4 4 5 5 6 7 8 9 10 10 10 9 9 8 7 5 4 4 4 4 4 6 7 8 8 8 6 3 0 1 1 1 1 2 3 4 4 5 5 6 6 6 5
4 4 4 5 5 6 8 9 10 10 10 10 9 9 8 7 6 6 5 5 4 5 5 6 7 6 6 4 2 1 1 1 0 1 1 2 3 3 4 4 5 5 5
5 5 5 5 6 6 7 9 10 10 11 11 10 10 10 9 9 8 8 7 7 6 6 5 5 5 5 4 3 1 0 1 1 1 1 1 2 2 2 3 4 5 6
6 6 6 6 6 7 7 8 10 11 11 12 12 12 12 12 11 11 11 10 10 10 9 8 7 6 5 4 3 2 1 1 2 2 2 2 2 2 3 4 4 6 6
6 6 6 6 7 7 8 9 10 11 12 13 14 14 15 15 15 14 14 14 13 13 12 11 10 8 7 6 5 4 2 2 2 3 3 4 4 4 4 5 6 6 7
7 7 7 8 8 9 10 11 12 13 14 15 16 17 18 18 18 18 17 17 17 17 16 15 14 12 11 10 9 8 7 6 5 5 5 6 6 6 7 7 7 8 8
9 10 10 11 12 13 14 15 16 16 17 18 19 20 21 21 22 22 21 21 20 20 19 18 18 17 15 15 14 13 12 10 9 9 8 8 8 9 9 9 10 10 10
11 13 14 15 16 17 19 19 20 21 22 22 23 24 24 24 25 25 25 25 24 23 22 21 21 20 20 19 18 17 16 15 14 13 12 12 12 12 12 12 12 12 12
15 16 18 19 20 22 23 24 25 26 27 27 27 27 27 27 28 28 28 28 27 26 25 24 23 23 23 23 22 21 20 19 18 17 16 15 15 15 15 15 15 15 15
18 19 21 22 24 25 26 28 29 29 28 29 30 31 30 31 31 31 31 31 31 30 28 26 25 25 25 25 24 24 23 22 21 20 19 19 18 18 18 19 18 18 17
22 24 24 26 27 28 29 30 31 31 30 30 31 31 32 33 34 35 34 34 34 32 30 29 27 26 26 26 26 25 25 24 23 22 22 21 20 20 20 20 21 21 20
26 27 27 28 29 30 31 31 32 33 33 32 33 33 33 34 36 37 37 37 36 34 32 30 29 27 27 26 26 25 23 23 23 23 22 22 21 21 22 22 23 23 23
28 29 29 28 29 30 31 32 33 34 34 33 33 34 35 36 37 38 40 40 38 36 33 32 30 28 27 27 26 25 23 23 23 22 21 21 22 22 23 24 24 24 25
30 31 31 31 31 31 33 32 32 32 33 34 36 36 37 38 38 40 41 41 39 37 35 33 32 31 29 28 26 25 23 22 22 22 21 21 21 22 23 23 24 23 24
31 32 33 33 34 34 35 35 34 34 34 34 35 37 38 41 41 41 41 43 41 39 37 35 34 33 31 29 27 25 23 22 22 22 22 22 21 21 22 23 23 23 23
32 33 34 35 35 36 37 36 36 35 34 34 35 36 37 40 41 41 41 42 41 39 39 37 36 34 33 31 28 27 25 24 24 23 23 23 22 21 21 22 23 24 24
32 34 35 36 38 38 38 37 38 36 35 34 34 35 37 39 39 39 39 40 41 41 40 38 37 36 34 32 30 29 27 26 25 24 24 23 22 22 22 22 23 23 23
34 36 37 39 39 39 39 39 38 36 35 34 34 35 36 36 36 35 37 38 40 41 41 39 38 36 35 33 31 30 29 28 27 25 25 24 23 22 21 21 22 22 22
37 38 40 40 41 40 40 39 37 36 36 35 35 36 33 33 31 32 36 38 40 41 40 39 38 36 35 34 33 32 30 29 27 26 26 25 24 22 21 20 19 19 20
37 38 38 39 39 38 38 38 38 37 37 36 36 35 33 29 28 30 34 38 40 40 39 39 37 36 36 35 34 32 31 30 28 27 26 25 24 22 20 18 17 16 16
35 35 36 36 37 38 38 39 39 39 39 38 38 36 33 30 28 29 31 33 36 40 40 38 36 36 35 34 34 33 32 30 29 28 27 26 25 23 21 19 17 15 14
35 35 36 37 38 39 40 40 41 41 41 40 39 37 35 34 31 30 30 32 34 35 36 36 37 36 35 34 33 32 32 31 29 28 28 27 26 24 22 20 17 16 15
36 37 38 39 40 42 42 43 43 43 43 42 41 40 39 37 35 33 32 32 34 34 34 36 36 36 34 33 33 32 32 31 30 29 29 29 28 26 23 21 19 17 16
37 39 40 41 43 44 45 45 45 45 45 44 44 43 42 41 40 38 36 35 35 36 36 37 37 37 36 35 35 34 33 32 32 31 31 30 30 28 25 23 20 18 17
38 40 41 42 43 44 45 45 46 46 46 45 45 44 44 44 43 43 42 41 40 40 39 39 39 39 38 37 37 36 35 35 34 34 34 33 32 30 28 25 22 20 18

GEFSSE_500_meanwind_042.txt.gz
Wind_Speed
10 10 9 8 8 8 8 8 8 9 9 10 11 11 12 12 12 11 11 10 9 9 9 10 10 9 7 5 4 4 3 3 3 3 4 4 5 6 6 7 7 7 7
10 10 9 8 7 7 7 7 7 8 9 10 10 11 12 12 13 13 12 12 11 10 9 9 9 9 8 6 5 4 4 3 2 2 2 3 3 4 5 5 6 6 6
9 9 8 8 7 7 6 6 7 7 8 9 10 11 12 13 13 14 14 13 13 12 11 10 9 8 7 7 6 5 4 4 3 2 1 1 2 3 4 4 5 5 5
8 7 7 7 7 6 6 6 7 7 8 9 10 11 12 13 14 15 15 15 15 14 13 12 10 9 7 7 6 5 5 4 4 3 2 1 1 2 3 3 4 4 4
8 7 7 7 7 7 6 7 7 8 9 10 10 11 12 13 14 15 16 17 17 17 16 15 13 11 9 7 7 6 5 5 4 4 4 3 2 2 2 3 3 3 4
9 8 8 8 8 8 9 9 10 12 13 13 13 14 15 15 16 16 17 18 18 19 18 17 16 14 12 11 9 8 7 6 5 5 5 4 3 3 3 3 3 4 4
11 11 10 10 10 11 12 13 14 15 16 17 18 18 18 18 18 19 19 20 20 20 20 20 19 18 16 15 13 12 11 9 8 7 6 6 6 5 4 4 4 5 5
13 13 13 13 14 15 16 17 17 18 20 20 21 21 22 22 22 22 22 22 22 22 21 21 21 21 20 19 18 17 15 14 12 11 10 9 8 7 7 6 6 6 7
14 15 16 17 17 18 19 19 20 21 23 23 24 24 25 25 25 25 25 25 24 24 24 23 23 23 22 22 22 21 20 18 17 15 14 12 12 11 10 9 8 8 8
18 17 18 18 19 19 20 21 23 24 25 26 26 26 27 27 28 28 28 28 27 27 26 26 25 25 25 25 25 24 24 23 21 20 18 16 15 14 14 13 11 11 11
21 21 21 21 21 21 22 23 24 25 25 26 27 28 28 29 30 30 30 30 29 29 29 28 28 27 27 27 27 27 26 26 26 24 22 20 19 18 17 16 15 14 14
24 24 24 24 23 24 25 25 25 26 27 28 29 30 30 31 31 31 31 31 31 31 31 31 31 30 30 29 29 29 28 28 28 27 25 23 22 21 20 19 18 17 17
26 27 26 26 26 27 28 28 28 29 30 30 31 31 31 32 32 33 33 32 33 34 35 34 33 33 32 32 31 30 30 30 29 29 27 25 25 24 23 22 21 21 20
29 30 29 29 29 30 31 31 31 32 33 34 34 34 33 33 34 35 35 34 34 34 36 38 36 35 34 34 33 31 31 30 30 29 28 26 27 26 25 24 23 23 22
33 33 32 33 32 32 33 34 34 34 35 36 37 36 35 35 35 36 35 35 35 35 37 39 39 37 37 35 34 33 31 30 30 28 28 27 27 27 26 25 24 23 23
35 35 35 35 34 34 35 36 36 37 37 38 38 38 38 37 36 36 36 37 36 36 38 39 39 38 37 36 35 34 33 32 30 29 28 27 27 27 26 26 24 24 24
33 34 35 35 34 35 36 38 39 39 40 40 39 39 38 37 37 36 36 36 37 37 37 38 38 39 38 37 36 35 34 32 31 30 29 28 27 27 27 26 25 24 23
31 32 34 35 35 36 37 39 41 42 42 42 41 40 39 38 37 36 36 37 37 36 37 37 38 37 37 37 36 35 34 33 32 32 30 29 28 28 26 26 25 24 23
30 32 34 36 37 39 39 40 41 42 42 42 41 40 39 39 38 38 37 37 37 36 36 37 36 35 36 36 35 35 35 35 33 32 31 30 29 28 26 26 25 24 23
30 32 34 36 38 39 40 41 41 40 40 40 40 39 39 39 39 39 39 38 38 36 36 35 32 32 34 35 35 34 34 36 35 33 32 31 30 28 26 25 24 23 22
30 32 34 35 37 38 39 40 40 40 40 41 41 40 39 40 40 40 40 39 38 37 36 33 31 31 33 34 34 35 35 35 34 33 31 30 29 28 26 25 24 23 22
29 31 32 34 36 38 39 40 40 41 41 42 42 41 41 41 42 42 41 40 39 38 37 34 33 31 32 34 34 34 34 34 33 32 31 30 29 28 27 26 25 24 22
30 32 34 35 36 38 40 41 41 41 41 42 42 42 41 41 42 43 42 41 40 39 37 36 35 33 32 32 32 33 34 33 33 32 32 31 30 30 29 27 26 24 23
32 34 35 35 36 38 39 40 40 40 41 41 42 42 42 42 42 41 41 40 40 39 38 37 36 35 34 32 32 34 35 34 33 32 32 32 32 31 29 28 26 25 24
33 34 36 36 37 38 39 40 41 41 41 42 42 42 41 40 40 39 39 38 38 37 37 38 38 37 36 35 34 33 34 35 36 34 32 31 32 32 31 30 28 26 25
33 34 36 37 38 39 39 40 41 41 41 41 41 40 39 38 38 38 37 36 36 36 36 36 37 38 38 39 38 35 35 35 36 36 35 33 33 33 33 32 30 28 27

GEFSSE_500_meanwind_048.txt.gz
Wind_Speed
5 5 5 4 4 4 4 4 4 4 4 5 5 6 7 8 9 10 11 11 12 12 13 13 14 14 13 11 10 7 5 4 4 4 5 5 5 5 6 7 8 8 9
5 5 4 4 4 4 4 4 4 4 4 4 5 6 7 7 8 9 10 10 11 11 12 12 13 13 13 12 11 9 7 4 3 3 3 4 4 4 5 5 6 7 8
5 5 5 4 4 4 4 4 4 4 4 5 6 6 7 8 9 9 10 10 11 11 11 12 12 12 12 12 11 10 8 6 4 2 2 2 2 3 4 4 5 6 7
5 4 4 4 4 4 4 4 4 5 6 6 7 7 8 9 9 10 10 11 11 11 11 11 11 12 12 12 11 10 9 7 5 3 2 1 1 1 3 4 4 5 6
5 5 5 5 5 5 5 6 6 7 7 8 8 9 9 10 10 11 12 12 12 12 12 12 12 12 12 12 11 11 9 8 6 4 3 2 1 1 2 3 4 5 6
5 6 6 6 6 7 7 8 9 9 10 10 11 11 12 12 13 13 14 14 14 14 14 13 13 13 13 13 13 12 10 9 8 6 4 3 2 2 3 3 4 5 6
7 7 8 8 9 9 10 11 11 11 12 12 13 13 13 14 15 15 16 16 16 16 16 15 15 14 15 15 15 14 12 11 10 8 7 5 4 4 4 5 5 5 6
8 9 9 11 11 12 13 13 13 13 14 14 14 15 15 15 16 17 17 18 18 19 19 18 17 17 17 17 17 16 15 14 13 11 10 8 7 6 6 7 6 7 7
9 10 11 12 12 13 14 15 15 15 15 16 16 17 17 18 18 18 19 19 20 20 21 20 20 20 20 20 20 20 19 17 16 15 13 12 10 9 8 8 8 8 8
11 12 13 14 14 15 17 17 17 17 17 18 18 19 19 20 20 20 21 22 22 22 22 22 23 22 23 23 23 23 22 21 20 18 17 16 14 13 12 11 10 10 10
14 15 16 16 16 17 18 19 19 19 19 19 20 21 22 22 22 22 23 23 23 23 23 23 24 24 25 25 25 26 25 25 23 22 21 20 18 17 16 14 13 13 12
17 18 19 18 19 20 21 21 22 22 22 22 23 23 24 25 25 24 24 25 25 25 25 25 24 25 26 27 27 27 28 29 27 25 24 23 22 21 20 18 17 16 15
21 21 22 22 22 23 24 24 25 25 25 25 25 26 26 27 27 27 27 27 27 28 28 28 27 25 25 27 28 28 29 30 30 28 27 26 25 24 23 22 21 19 18
25 25 25 26 26 26 26 26 27 27 27 28 28 28 29 29 30 30 29 29 29 29 30 30 30 29 27 26 27 28 29 30 31 31 29 28 27 27 26 25 24 23 21
28 27 28 29 28 28 28 28 29 29 29 29 30 31 31 32 32 32 31 31 32 32 32 32 32 31 30 29 28 28 28 30 32 32 31 30 29 28 27 27 26 26 25
28 28 29 28 28 29 30 30 31 32 32 32 33 34 34 34 34 34 34 34 34 34 33 33 32 32 31 30 30 29 29 30 31 33 33 32 31 30 29 28 28 28 27
26 27 27 27 28 29 30 31 33 33 35 35 36 36 37 36 36 35 35 35 35 36 35 34 34 33 32 32 31 30 31 30 31 33 33 33 33 32 30 28 28 28 29
24 25 26 27 28 30 31 33 34 35 37 38 38 39 38 38 37 37 36 36 36 36 36 36 36 35 34 33 32 31 32 32 32 33 33 33 34 33 31 29 28 29 29
24 25 27 28 30 32 33 35 36 38 39 39 39 39 39 38 38 38 37 37 37 37 37 37 37 36 35 34 33 31 30 30 32 33 33 33 34 34 32 31 30 30 29
24 26 28 30 32 33 35 36 37 38 39 39 39 39 39 39 39 39 39 38 38 37 37 37 37 36 36 35 33 31 30 29 31 32 33 32 33 34 33 32 31 30 30
25 27 29 31 32 34 35 36 37 38 38 39 39 38 38 37 38 38 39 39 38 38 38 37 37 36 36 34 32 31 31 31 30 32 34 33 34 35 34 33 32 32 32
24 25 27 29 31 32 34 35 36 36 36 37 37 37 36 36 36 36 37 37 37 37 37 37 37 36 35 35 33 30 30 30 31 32 33 35 35 35 35 35 34 33 33
21 23 24 26 28 30 32 33 34 35 35 36 36 36 35 34 33 33 34 35 35 35 35 35 35 35 34 34 33 30 29 29 28 31 33 34 34 35 35 35 34 33 33
20 22 23 24 26 28 29 31 32 32 33 33 33 34 34 34 33 33 32 32 32 32 33 33 33 33 33 32 32 31 30 29 28 28 30 32 33 33 34 35 34 33 33
21 22 24 25 26 28 29 30 31 32 32 33 33 34 34 34 34 33 32 30 30 30 30 30 30 30 31 31 31 30 30 29 29 29 30 31 32 32 33 34 34 34 34
24 26 27 28 30 31 32 33 33 34 34 34 35 35 35 36 36 35 34 33 31 30 30 30 30 29 29 29 30 30 30 31 30 30 30 32 32 32 32 33 35 34 35

GEFSSE_500_meanwind_054.txt.gz
Wind_Speed
7 7 6 6 6 5 5 5 6 5 5 4 5 5 5 6 6 6 7 7 7 8 8 9 10 11 12 12 11 10 9 7 6 5 5 6 6 6 6 6 5 6 6
7 7 6 5 5 5 5 5 5 5 5 4 4 4 4 4 4 5 5 6 6 6 7 7 8 9 10 11 11 10 9 7 5 5 5 5 5 5 5 4 4 5 6
6 6 5 4 5 5 5 5 5 5 5 5 4 4 4 4 5 5 6 6 7 7 7 7 7 7 8 8 9 9 8 7 5 4 4 3 3 4 4 4 4 4 5
6 6 5 4 4 4 4 4 5 5 5 5 6 6 6 6 6 7 8 8 8 9 9 8 8 8 7 7 7 6 6 6 5 3 2 2 2 3 4 4 4 4 5
6 6 5 5 5 5 5 5 5 5 6 6 7 7 8 8 8 9 10 10 11 11 11 10 10 9 9 8 8 6 5 4 3 2 1 1 2 3 4 4 5 5 5
8 7 6 5 6 6 6 6 7 7 7 8 9 9 10 10 11 11 11 12 13 13 13 13 12 12 11 11 10 9 7 5 4 3 2 2 3 4 4 5 5 6 6
9 9 8 7 7 7 7 7 8 9 9 10 10 10 11 11 11 12 13 13 14 14 15 15 15 14 14 14 13 13 11 9 7 5 4 4 4 5 5 6 6 6 7
10 10 9 8 8 8 9 10 10 10 10 11 11 12 12 13 13 14 14 15 15 16 16 17 17 17 17 16 16 16 15 13 11 10 8 7 6 6 7 7 7 7 8
12 11 11 11 11 10 11 11 12 12 12 13 13 14 14 14 15 16 16 16 17 18 18 19 19 19 19 19 19 19 18 18 16 14 12 11 9 8 8 9 9 9 9
15 15 14 14 14 14 14 14 14 15 15 15 15 15 15 16 17 18 18 19 20 20 20 20 20 21 21 20 20 20 20 21 20 18 17 16 14 12 11 11 11 11 10
17 17 18 17 18 18 18 18 18 17 17 17 17 17 18 18 19 20 21 21 22 21 22 22 22 23 23 22 22 22 22 22 23 22 21 20 18 17 15 14 13 13 12
20 20 21 21 23 23 22 22 22 22 21 20 20 20 20 21 21 22 23 24 24 24 24 24 25 25 25 25 25 24 22 23 22 24 24 23 23 21 20 18 17 16 15
22 21 22 24 24 24 24 25 25 24 23 22 21 22 23 23 24 25 25 26 27 26 26 26 27 27 27 27 27 25 23 23 23 24 25 26 26 25 24 22 21 20 18
21 22 23 24 25 25 26 26 25 25 24 25 26 25 25 26 27 27 28 28 29 29 28 28 28 28 28 29 28 26 25 24 23 24 26 27 28 29 28 26 25 23 22
21 22 24 25 25 25 26 26 26 27 26 26 26 27 27 28 28 29 29 30 31 31 31 30 30 29 30 30 29 28 26 25 23 22 24 26 28 30 31 30 28 27 25
20 21 22 23 24 25 25 25 26 26 25 26 26 26 27 28 29 29 31 32 33 33 32 32 32 31 30 30 30 30 28 27 26 24 24 25 26 29 32 32 32 31 29
19 20 20 21 21 22 24 25 26 27 27 28 29 29 29 30 31 31 32 33 33 33 33 33 32 32 31 31 31 30 29 29 27 26 26 26 27 28 31 34 34 33 32
18 19 20 21 22 23 24 25 26 27 28 29 30 30 31 32 32 32 33 33 33 33 33 33 33 33 33 32 31 31 31 30 28 28 28 28 28 29 30 33 36 36 35
18 18 19 21 22 23 25 26 27 28 29 30 30 31 31 32 32 33 33 33 34 34 34 34 34 33 33 33 32 32 31 31 30 30 29 30 29 29 30 33 36 38 37
18 19 20 22 23 24 25 27 28 29 29 30 30 31 31 31 31 32 33 34 34 34 34 34 34 33 33 33 33 32 32 32 32 32 31 31 31 30 31 34 36 37 38
19 20 21 22 24 25 26 27 28 29 30 31 31 31 31 31 31 32 32 33 33 34 34 34 34 33 33 33 33 33 32 32 33 32 32 32 32 32 32 34 36 38 39
19 20 22 23 24 26 27 28 30 30 31 32 33 33 32 32 31 31 32 32 32 33 33 33 32 33 33 33 33 33 33 33 33 33 32 32 32 32 33 34 36 37 38
19 20 22 23 25 26 27 28 29 30 31 32 32 33 32 31 30 30 30 31 31 31 32 32 32 32 32 33 33 33 33 33 33 33 32 32 32 32 33 35 37 39 39
19 20 22 23 24 25 26 28 29 29 30 30 31 31 30 30 29 29 29 30 31 32 32 32 32 32 32 33 33 33 33 32 33 33 33 33 33 33 33 35 36 39 40
18 19 21 22 24 25 26 27 28 28 29 29 29 29 30 30 30 30 30 31 31 32 33 33 34 33 33 33 33 33 33 33 33 33 33 34 33 33 34 35 36 38 40
18 19 21 22 24 25 26 26 27 27 27 28 29 29 30 30 31 31 31 32 32 33 34 35 35 35 35 34 34 34 34 34 33 33 33 33 33 34 35 36 37 38 40

GEFSSE_500_meanwind_060.txt.gz
Wind_Speed
3 3 2 1 1 2 2 2 2 0 1 2 3 3 3 3 3 3 4 4 4 4 4 5 5 5 6 6 6 5 4 4 3 3 3 4 5 5 6 5 5 5 6
3 3 2 1 1 2 3 3 3 2 1 1 1 1 1 1 1 1 1 1 1 1 2 2 3 3 3 3 4 4 4 3 3 2 3 3 4 5 5 5 5 5 6
3 3 2 2 2 3 4 4 4 4 3 3 2 2 2 3 3 2 2 1 2 2 2 3 3 3 3 2 1 2 2 2 2 2 3 3 4 4 5 5 5 5 5
4 4 4 4 4 5 5 5 5 5 5 5 5 5 5 5 5 5 4 4 4 4 4 5 5 5 5 4 3 2 1 1 1 2 3 3 4 4 5 5 5 5 6
4 4 5 5 6 6 6 6 7 7 7 7 7 7 7 7 8 7 7 6 6 6 6 6 7 7 7 7 6 5 4 3 3 3 3 4 4 5 5 6 6 6 6
5 6 7 8 8 8 8 8 9 9 9 9 9 9 10 10 10 9 9 8 8 7 7 8 8 8 8 9 8 8 7 6 5 5 5 5 5 6 6 7 7 7 7
7 9 10 10 10 10 10 11 10 11 11 12 12 12 11 12 11 11 10 10 9 9 9 9 9 10 11 11 11 11 10 10 9 8 8 7 7 8 8 8 9 9 9
10 11 12 13 13 13 13 14 14 14 14 14 15 14 14 13 13 12 11 11 11 11 10 11 11 12 12 12 12 13 13 12 12 12 11 10 10 10 10 10 10 11 10
12 13 15 15 16 16 16 17 17 17 17 17 17 17 17 16 15 14 14 13 13 12 12 13 13 13 13 13 13 14 15 14 14 15 14 13 13 12 12 12 13 13 13
14 15 17 18 19 19 19 19 20 20 20 21 21 21 20 19 18 17 16 16 15 15 15 15 15 15 15 15 15 15 16 16 16 16 17 17 17 15 15 15 15 15 15
18 18 19 20 21 22 22 22 22 22 23 24 24 24 23 22 21 19 18 17 17 17 17 17 17 17 17 17 17 17 17 16 17 17 19 20 20 20 18 17 17 17 17
20 20 21 21 23 24 24 25 25 25 25 25 25 24 23 23 23 22 20 19 19 19 20 19 19 19 19 19 19 18 18 18 17 17 18 20 23 23 22 21 20 19 19
20 20 20 21 23 24 25 26 26 26 26 26 26 25 25 24 23 22 22 21 21 22 22 21 20 21 20 20 20 19 19 19 18 18 18 20 23 26 26 24 24 22 21
19 19 20 21 22 24 24 24 25 25 24 23 24 24 23 23 24 23 23 23 24 24 23 23 23 23 23 23 22 21 20 20 19 20 19 19 22 24 27 28 27 26 25
19 19 19 20 20 21 21 21 22 21 21 22 22 22 23 24 24 24 24 25 25 26 26 26 26 26 25 25 24 23 22 22 21 22 21 21 21 24 26 29 30 30 29
17 17 17 17 17 18 18 19 20 20 20 20 21 21 21 22 23 24 25 26 27 27 27 27 27 26 26 26 26 26 25 24 23 23 23 22 22 24 26 29 31 33 32
15 15 15 15 15 16 17 18 18 18 18 19 20 20 21 21 22 23 24 24 25 26 28 28 28 27 28 28 27 27 27 26 26 25 25 25 24 24 26 28 31 35 36
13 13 13 13 13 14 15 16 17 18 18 19 20 20 21 22 22 23 24 24 25 26 27 27 28 28 28 28 28 28 28 28 28 28 27 27 27 27 27 28 30 33 37
11 11 12 12 13 13 14 16 16 17 18 19 20 21 21 22 23 24 24 25 25 26 26 27 28 28 29 29 29 29 30 30 30 30 29 30 30 29 29 30 31 32 35
10 10 11 11 12 13 15 16 17 18 20 21 21 22 22 23 23 23 24 24 25 26 26 27 27 28 28 28 29 29 30 31 31 31 31 31 31 32 31 32 32 33 35
9 10 10 12 13 15 16 18 19 21 22 22 22 22 23 23 23 23 24 23 24 25 25 26 26 27 27 27 28 29 30 31 31 32 32 33 33 33 33 33 34 34 35
9 10 11 13 15 17 18 20 22 23 24 24 24 23 23 23 23 23 23 23 23 24 24 25 25 26 27 27 27 28 29 30 30 32 33 34 34 34 35 35 35 36 37
9 11 13 15 17 18 20 21 22 23 23 23 23 22 22 22 22 22 22 23 23 23 24 24 24 25 26 26 27 28 29 30 30 31 33 34 35 35 36 37 37 37 38
11 13 15 17 18 20 21 21 22 22 21 21 21 21 21 21 21 21 22 22 23 23 24 25 25 26 27 27 28 29 29 30 31 32 33 34 35 36 37 37 38 39 39
12 14 16 18 19 19 19 20 20 21 21 21 21 21 20 20 20 20 21 22 23 24 25 26 26 27 28 29 30 30 31 32 33 34 35 35 36 37 38 38 38 39 40
13 15 17 17 18 18 19 20 20 20 21 21 21 21 21 21 21 21 22 23 24 25 26 27 28 29 30 31 32 33 34 35 36 36 37 38 39 39 38 39 38 39 39

GEFSSE_500_meanwind_066.txt.gz
Wind_Speed
2 2 1 1 1 1 2 4 4 5 5 5 5 4 4 4 4 4 4 3 3 4 4 4 4 5 5 4 4 5 5 5 4 4 4 3 3 4 4 5 6 7 7
4 3 2 2 2 3 4 4 5 5 5 6 6 6 6 6 6 6 5 5 5 5 4 5 5 5 5 5 4 4 4 4 4 3 2 2 2 2 3 4 5 6 7
5 4 4 4 4 5 5 6 6 6 6 7 7 7 8 8 8 8 8 7 7 7 6 6 6 6 6 5 5 4 4 4 3 2 1 0 0 1 2 4 4 6 6
5 4 5 5 6 6 7 7 8 8 8 9 9 9 9 10 10 10 10 10 10 9 9 8 7 7 7 7 6 5 5 4 4 3 3 1 1 1 2 3 4 5 6
5 5 5 6 7 8 8 9 9 10 10 10 10 11 11 12 12 12 12 12 12 11 10 10 9 9 8 8 8 7 7 6 5 5 4 2 2 3 3 3 3 4 5
5 6 7 8 9 9 10 11 11 12 12 12 13 13 13 13 14 14 14 14 13 13 12 11 11 10 10 10 10 9 9 8 7 6 5 4 4 4 4 4 4 4 5
6 7 8 9 10 11 12 12 13 13 14 14 14 14 15 15 16 16 16 16 15 15 14 14 13 12 11 11 11 10 10 10 9 8 7 7 6 6 5 5 5 5 5
7 9 10 11 12 13 13 14 15 15 16 16 16 16 17 17 18 18 18 18 17 17 16 16 15 14 13 13 12 12 12 12 12 11 10 9 9 8 7 7 6 6 7
9 11 12 12 14 15 16 16 17 18 18 18 19 19 20 20 20 20 20 20 19 19 19 18 17 16 16 15 14 13 13 13 13 13 12 12 11 11 10 9 9 8 8
13 13 13 14 15 16 17 18 19 20 20 21 22 22 22 22 22 22 21 22 21 21 21 20 20 19 18 17 16 15 15 15 15 14 14 14 14 13 13 12 11 11 10
15 14 14 15 17 17 18 19 21 21 22 22 22 23 24 24 23 23 24 24 23 23 22 22 21 21 20 19 18 18 17 17 16 16 15 15 16 16 16 15 14 14 13
16 16 16 16 17 18 19 20 21 22 22 22 22 23 23 22 22 23 23 23 24 24 24 24 24 23 22 21 20 19 18 18 18 17 16 16 16 17 19 19 18 17 16
16 16 17 17 18 19 19 20 21 21 21 22 22 22 22 21 20 20 20 21 22 22 23 22 23 23 22 22 21 20 20 19 19 17 16 17 18 18 19 21 21 20 19
16 16 17 17 17 18 19 20 20 20 20 19 19 20 20 19 18 19 21 20 20 20 20 22 22 22 22 23 23 22 20 20 20 18 18 18 18 19 19 22 24 24 22
16 17 16 16 16 17 18 17 18 17 17 17 17 18 18 18 18 20 20 20 20 20 21 22 23 23 22 23 22 22 22 21 21 21 19 19 19 19 20 21 24 27 26
16 15 15 14 14 15 16 16 16 16 16 16 17 17 18 18 19 20 20 20 20 20 21 22 22 23 23 23 22 21 21 22 22 23 22 21 21 21 21 22 24 27 28
15 14 13 13 13 14 15 15 16 17 17 17 17 17 18 18 18 19 20 20 20 21 21 21 22 21 23 23 23 23 23 23 23 23 23 23 23 23 22 23 25 27 29
13 13 12 12 13 13 14 14 15 16 16 17 17 17 18 19 19 19 19 20 21 21 21 21 22 22 22 22 23 23 23 23 23 24 25 25 25 25 24 23 25 27 29
12 12 11 11 11 12 13 14 14 16 16 17 17 17 18 18 19 19 19 19 20 20 21 21 21 22 22 22 22 23 23 24 24 25 26 26 27 27 27 26 26 27 29
11 11 11 11 11 12 13 14 14 15 16 17 17 17 18 18 18 19 18 18 18 18 19 20 21 21 22 22 23 23 24 25 26 26 26 27 28 28 28 29 28 28 29
10 10 10 10 11 11 12 13 14 15 15 16 16 16 17 18 18 18 18 18 18 18 17 18 18 20 20 21 22 23 24 25 26 26 27 27 28 29 30 30 30 30 30
8 9 9 9 9 10 11 12 13 14 15 15 16 17 17 18 18 18 18 18 18 18 18 18 18 18 19 20 21 21 23 24 24 25 27 28 28 29 30 31 32 32 32
6 6 7 8 9 10 11 12 13 15 16 17 17 18 18 18 19 19 19 19 19 19 19 19 19 20 20 20 21 22 23 24 24 25 26 27 28 29 30 31 32 33 34
4 5 6 8 9 11 12 14 15 16 17 18 19 19 19 19 19 20 20 20 20 20 21 21 21 21 21 21 22 22 24 25 26 27 27 28 29 29 30 31 32 33 34
3 5 7 9 10 12 14 16 17 18 19 19 20 20 20 20 20 21 21 21 22 22 22 22 23 23 23 23 24 24 25 26 27 28 29 29 30 31 31 32 33 33 35
6 7 9 10 12 13 15 17 18 19 20 21 21 22 22 22 21 21 22 22 23 24 24 24 25 26 26 26 27 27 27 28 29 30 31 32 32 33 34 34 34 35 36